Location: Endfield
(51.6667°N, 0.0667°W)
Time: 11:24:15
(UTC+00:00)

Cosmos 1933 - Pass Details

Date: 19 May 2024
Orbit: 534 x 539 km, 82.5° (Epoch: 14 June)

Event Time Altitude Azimuth Distance (km) Brightness Sun altitude
Rises 21:03:17 0° 204° (SSW) 2,684 6.6 -8.9°
Reaches altitude 10° 21:05:29 10° 211° (SSW) 1,798 5.8 -9.1°
Maximum altitude 21:09:18 46° 285° (WNW) 734 4.4 -9.5°
Drops below altitude 10° 21:13:10 10° 0° (N) 1,816 6.8 -9.9°
Sets 21:15:24 0° 7° (N) 2,714 7.6 -10.1°
